Regional Weather Roundup
Issued by NWS

Home | Current Version | Previous Version | Graphics & Text | Print | Product List | Glossary On
Versions: 1 2 3 4 5 6 7 8 9 10 11 12 13 14 15 16 17 18 19 20 21 22 23 24 25 26 27 28 29 30 31 32 33 34 35 36 37 38 39 40 41 42 43 44 45 46 47 48 49 50
000
ASUS45 KSLC 290810
RWRUT

UTAH REGIONAL WEATHER ROUNDUP
NATIONAL WEATHER SERVICE SALT LAKE CITY UT
200 AM MDT FRI JUL 29 2016

UTZ001>011-023>025-290900-

NORTHERN UTAH

CITY           SKY/WX    TMP DP  RH WIND       PRES   REMARKS
BRIGHAM CITY     N/A     69  44  39 CALM      30.05S
HILL AFB       CLEAR     74  38  26 E13       30.08S
LOGAN          CLEAR     59  47  64 VRB3      30.08R
OGDEN          CLEAR     73  39  29 S9        30.05S
PROVO AIRPORT  CLEAR     70  39  32 SE7       30.06F
SALT LAKE CITY PTCLDY    79  42  26 S7        30.03S
VERNAL         CLEAR     69  32  25 NW7       30.12S
WENDOVER       CLEAR     79  36  21 SW3       30.06S
HEBER CITY     CLEAR     54  41  62 CALM      30.17S
WEST JORDAN    CLEAR     75  39  27 NW7       30.08S

$$

UTZ012>022-026-027-290900-

SOUTHERN/CENTRAL UTAH

CITY           SKY/WX    TMP DP  RH WIND       PRES   REMARKS
BLANDING       MOCLDY    77  30  17 CALM      30.19F
BRYCE CANYON   PTCLDY    54  36  50 VRB3      30.35S
CEDAR CITY     CLEAR     73  38  27 S6        30.16S
DELTA          PTCLDY    77  32  19 S7        30.06R
MILFORD        CLEAR     75  38  26 S7        30.09S
MOAB/CYNLANDS  CLEAR     76  25  15 SW3       30.00S
PRICE          CLEAR     70  27  20 N10       30.16F
ST GEORGE      SUNNY     91  45  19 CALM      29.94R

$$

REGIONAL REPORTS     COLORADO/ARIZONA

CITY           SKY/WX    TMP DP  RH WIND       PRES   REMARKS
CRAIG, CO      CLEAR     53  39  59 SE5       30.19R
GRAND JUNCTION CLEAR     70  29  21 NE5       30.04S
RIFLE          CLEAR     66  35  31 E6        30.14R
MONTROSE       CLOUDY    70  35  27 SE9       30.13F
CORTEZ         CLEAR     64  41  42 E6        30.15F
PAGE, AZ       CLEAR     86  40  19 SE3       30.00S
GRAND CANYON   CLEAR     56  48  74 CALM      30.26F
KINGMAN        PTCLDY    81  45  28 SE12      29.97F
FLAGSTAFF      MOCLDY    69  41  36 NW3       30.27F

$$

REGIONAL REPORTS    NEVADA/IDAHO/WYOMING

CITY           SKY/WX    TMP DP  RH WIND       PRES   REMARKS
LAS VEGAS, NV  CLOUDY    98  46  17 W6        29.79F HX  94
ELY            MOCLDY    75  35  23 S10       30.21F
ELKO           CLEAR     65  39  38 SW6       30.11S
POCATELLO, ID  CLEAR     74  32  21 W6        30.05R
BURLEY         CLEAR     64  44  48 SW9       30.02S
EVANSTON, WY   CLOUDY    65  30  27 S3        30.29S
ROCK SPRINGS   CLEAR     61  43  51 E9        30.28R
KEMMERER         N/A    N/A N/A N/A N9        30.32S

$$



USA.gov is the U.S. government's official web portal to all federal, state and local government web resources and services.